Alexandria, MN

8:21 PM CDT on April 30, 2017 (GMT -0500)
Chandler

Weather History for KAXN - February, 2013

Change the Weather History Date:

Tuesday, February 19, 2013

  Actual Average Record
Temperature  
Mean Temperature -6 °F -  
Max Temperature 0 °F 25 °F 53 °F (2017)
Min Temperature -11 °F 6 °F -20 °F (2008)
Degree Days  
Heating Degree Days 70    
Moisture  
Dew Point -14 °F    
Average Humidity 70    
Maximum Humidity 77    
Minimum Humidity 60    
Precipitation  
Precipitation 0.00 in - - ()
Sea Level Pressure  
Sea Level Pressure 30.25 in    
Wind  
Wind Speed 19 mph (NW)    
Max Wind Speed 24 mph    
Max Gust Speed 31 mph    
Visibility 9 miles    
Events      
Averages and records for this station are not official NWS values.
T = Trace of Precipitation, MM = Missing Value Source: NWS Daily Summary

Daily Weather History Graph

Daily Weather History Graph

Search for Another Location

Airport or City:

Trip Planner

Search our weather history database for the weather conditions in past years. The results will help you decide how hot, cold, wet, or windy it might be!

Date:

Astronomy

Feb. 19, 2013 Rise Set
Actual Time 7:17 AM CST 5:54 PM CST
Civil Twilight 6:46 AM CST 6:24 PM CST
Nautical Twilight 6:11 AM CST 6:59 PM CST
Astronomical Twilight 5:37 AM CST 7:33 PM CST
Moon 12:16 PM CST (2/19) 2:59 AM CST (2/19)
Length of Visible Light 11h 38m
Length of Day
10h 37m
Waxing Gibbous, 67% of the Moon is Illuminated
Feb 19
Waxing Gibbous
Feb 25
Full
Mar 4
Last Quarter
Mar 11
New
Mar 19
First Quarter

Hourly Weather History & Observations

Time (CST) Temp. Windchill Dew Point Humidity Pressure Visibility Wind Dir Wind Speed Gust Speed Precip Events Conditions
12:53 AM -2.0 °F -25.0 °F -8.0 °F 76% 30.05 in 8.0 mi NW 20.7 mph 27.6 mph N/A   Overcast
1:21 AM -2.2 °F -24.1 °F -9.4 °F 71% 29.95 in 9.0 mi NNW 18.4 mph 27.6 mph N/A   Scattered Clouds
1:53 AM -2.0 °F -25.0 °F -9.0 °F 72% 30.06 in 10.0 mi NW 20.7 mph 29.9 mph N/A   Partly Cloudy
2:53 AM -2.9 °F -27.2 °F -9.9 °F 72% 30.09 in 9.0 mi NNW 23.0 mph 29.9 mph N/A   Clear
3:53 AM -4.0 °F -27.0 °F -11.0 °F 72% 30.10 in 10.0 mi NW 19.6 mph 27.6 mph N/A   Mostly Cloudy
4:53 AM -4.0 °F -28.1 °F -11.0 °F 72% 30.12 in 10.0 mi NW 21.9 mph 28.8 mph N/A   Overcast
5:32 AM -7.6 °F -32.3 °F -13.0 °F 77% 30.03 in 7.0 mi NW 20.7 mph 26.5 mph N/A   Overcast
5:53 AM -8.0 °F -31.6 °F -14.1 °F 75% 30.17 in 7.0 mi NW 18.4 mph 31.1 mph N/A   Overcast
6:17 AM -9.4 °F -34.7 °F -16.6 °F 71% 30.05 in 9.0 mi NNW 20.7 mph 26.5 mph N/A   Overcast
6:53 AM -9.9 °F -34.2 °F -16.1 °F 74% 30.21 in 8.0 mi NW 18.4 mph - N/A   Overcast
7:09 AM -9.4 °F -32.8 °F -16.6 °F 71% 30.08 in 6.0 mi NW 17.3 mph - N/A   Haze
7:53 AM -9.9 °F -29.6 °F -16.1 °F 74% 30.25 in 5.0 mi NW 11.5 mph - N/A   Haze
8:53 AM -9.0 °F -32.4 °F -16.1 °F 71% 30.26 in 8.0 mi NW 17.3 mph - N/A   Overcast
9:21 AM -7.6 °F -32.9 °F -16.6 °F 65% 30.14 in 10.0 mi NW 21.9 mph - N/A   Scattered Clouds
9:53 AM -8.0 °F -33.9 °F -16.1 °F 68% 30.29 in 10.0 mi NW 23.0 mph 27.6 mph N/A   Clear
12:53 PM -4.0 °F -29.1 °F -14.1 °F 62% 30.32 in 10.0 mi NW 24.2 mph 27.6 mph N/A   Clear
1:53 PM -2.0 °F -23.9 °F -11.9 °F 63% 30.32 in 10.0 mi NW 18.4 mph 25.3 mph N/A   Clear
2:53 PM -0.9 °F -23.0 °F -11.9 °F 60% 30.33 in 10.0 mi NNW 19.6 mph - N/A   Clear
3:53 PM -0.9 °F -21.9 °F -11.9 °F 60% 30.37 in 10.0 mi NNW 17.3 mph 21.9 mph N/A   Clear
4:53 PM -2.9 °F -23.8 °F -13.0 °F 62% 30.40 in 10.0 mi NW 16.1 mph - N/A   Clear
6:53 PM -7.1 °F -27.6 °F -15.0 °F 68% 30.45 in 10.0 mi NNW 13.8 mph - N/A   Clear
7:53 PM -9.0 °F -30.2 °F -16.1 °F 71% 30.46 in 10.0 mi NNW 13.8 mph - N/A   Clear
8:53 PM -9.9 °F -28.6 °F -17.0 °F 71% 30.46 in 10.0 mi North 10.4 mph - N/A   Clear
9:53 PM -11.0 °F -29.9 °F -18.0 °F 71% 30.49 in 10.0 mi NW 10.4 mph - N/A   Clear
10:53 PM -11.9 °F -25.7 °F -18.0 °F 74% 30.50 in 10.0 mi NNW 5.8 mph - N/A   Clear
11:53 PM -11.9 °F -25.7 °F -18.0 °F 74% 30.51 in 10.0 mi NW 5.8 mph - N/A   Clear